Location: Cortos
(40.7190°N, 4.5893°W)
Time: 09:47:21
(UTC+00:00)

Cosmos 1892 - Pass Details

Date: 05 July 2020
Orbit: 505 x 523 km, 82.5° (Epoch: 07 August)

Event Time Altitude Azimuth Distance (km) Brightness Sun altitude
Exits shadow 22:42:10 69° 48° (NE) 548 2.7 -22.4°
Drops below altitude 10° 22:45:38 10° 11° (N) 1,735 6.1 -22.7°
Sets 22:47:46 0° 10° (N) 2,629 7.2 -22.8°
